This is the latest recevied weather packets stored in our database for station/object DO7CRZ-11. If no packets are shown the sender has not sent any weather packets the latest 10 day(s).
| Time | Temp. | Humidity | Pressure | Rain* | Wind** | Luminosity | Snow |
|---|---|---|---|---|---|---|---|
| 1777734731 | 26.67° C | 26% | 1020.3 hPa | 0 mm | - | 308 W/m² | - |
| 1777733527 | 26.67° C | 27% | 1020.6 hPa | 0 mm | - | 367 W/m² | - |
| 1777732930 | 26.67° C | 27% | 1020.7 hPa | 0 mm | - | 393 W/m² | - |
| 1777732353 | 26.11° C | 27% | 1020.7 hPa | 0 mm | - | 419 W/m² | - |
| 1777731726 | 26.11° C | 27% | 1020.9 hPa | 0 mm | - | 443 W/m² | - |
| 1777730533 | 26.67° C | 28% | 1021.2 hPa | 0 mm | - | 488 W/m² | - |
| 1777729936 | 26.67° C | 28% | 1021.2 hPa | 0 mm | - | 510 W/m² | - |
| 1777729329 | 26.67° C | 28% | 1021.3 hPa | 0 mm | - | 532 W/m² | - |
| 1777728731 | 26.67° C | 29% | 1021.4 hPa | 0 mm | - | 551 W/m² | - |
| 1777727527 | 26.11° C | 29% | 1021.7 hPa | 0 mm | - | 585 W/m² | - |
| 1777726930 | 26.11° C | 29% | 1021.8 hPa | 0 mm | - | 601 W/m² | - |
| 1777726333 | 25.56° C | 30% | 1021.9 hPa | 0 mm | - | 618 W/m² | - |
| 1777725129 | 25.56° C | 29% | 1022.3 hPa | 0 mm | - | 645 W/m² | - |
| 1777724532 | 25° C | 28% | 1022.3 hPa | 0 mm | - | 657 W/m² | - |
| 1777723935 | 25° C | 29% | 1022.5 hPa | 0 mm | - | 668 W/m² | - |
| 1777723328 | 25° C | 30% | 1022.6 hPa | 0 mm | - | 678 W/m² | - |
| 1777722730 | 24.44° C | 30% | 1022.6 hPa | 0 mm | - | 680 W/m² | - |
| 1777721527 | 24.44° C | 31% | 1022.9 hPa | 0 mm | - | 698 W/m² | - |
| 1777720930 | 24.44° C | 31% | 1023.1 hPa | 0 mm | - | 700 W/m² | - |
| 1777720332 | 24.44° C | 32% | 1023 hPa | 0 mm | - | 701 W/m² | - |
| 1777719736 | 23.89° C | 32% | 1023.3 hPa | 0 mm | - | 703 W/m² | - |
| 1777718531 | 23.89° C | 32% | 1023.5 hPa | 0 mm | - | 703 W/m² | - |
| 1777717934 | 23.89° C | 33% | 1023.5 hPa | 0 mm | - | 700 W/m² | - |
| 1777717327 | 23.33° C | 33% | 1023.8 hPa | 0 mm | - | 697 W/m² | - |
| 1777716730 | 23.33° C | 33% | 1023.8 hPa | 0 mm | - | 693 W/m² | - |
* Rain latest hour (hover to see other rain measurements)
** Current wind speed in m/s (hover to see current wind gust speed)